Time,TemperatureF,DewpointF,PressureIn,WindDirection,WindDirectionDegrees,WindSpeedMPH,WindSpeedGustMPH,Humidity,HourlyPrecipIn,Conditions,Clouds,dailyrainin,SoftwareType,DateUTC
2013-05-23 00:00:00,69.9,59.7,29.89,SE,135,7.8,7.8,70,0.02,,---,0.28,VWS V14.01,2013-05-23 04:00:00,
2013-05-23 00:01:00,69.6,59.4,29.89,SE,135,7.8,7.8,70,0.02,,---,0.28,VWS V14.01,2013-05-23 04:01:00,
2013-05-23 00:06:00,68.7,58.5,29.88,SE,135,3.1,3.1,70,0.02,,---,0.00,VWS V14.01,2013-05-23 04:06:00,
2013-05-23 00:11:00,68.3,58.2,29.89,SE,135,5.1,5.1,70,0.02,,---,0.00,VWS V14.01,2013-05-23 04:11:00,
2013-05-23 00:16:00,67.2,57.5,29.89,SE,135,7.8,7.8,71,0.02,,---,0.00,VWS V14.01,2013-05-23 04:16:00,
2013-05-23 00:21:00,66.9,57.6,29.89,SE,135,0.0,0.0,72,0.02,,---,0.00,VWS V14.01,2013-05-23 04:21:00,
2013-05-23 00:26:00,66.5,57.2,29.90,SE,135,2.2,2.2,72,0.04,,---,0.02,VWS V14.01,2013-05-23 04:26:00,
2013-05-23 00:31:00,66.3,57.4,29.91,WNW,292,0.0,0.0,73,0.04,,---,0.02,VWS V14.01,2013-05-23 04:31:00,
2013-05-23 00:36:00,66.0,57.1,29.90,WNW,292,0.0,0.0,73,0.04,,---,0.02,VWS V14.01,2013-05-23 04:36:00,
2013-05-23 00:41:00,65.8,57.3,29.90,ENE,68,0.0,0.0,74,0.04,,---,0.02,VWS V14.01,2013-05-23 04:41:00,
2013-05-23 00:46:00,65.4,57.3,29.90,SE,135,4.0,4.0,75,0.06,,---,0.04,VWS V14.01,2013-05-23 04:46:00,
2013-05-23 00:51:00,65.3,57.2,29.90,SE,135,1.7,1.7,75,0.06,,---,0.04,VWS V14.01,2013-05-23 04:51:00,
2013-05-23 00:56:00,65.1,57.4,29.90,NE,45,0.0,0.0,76,0.04,,---,0.04,VWS V14.01,2013-05-23 04:56:00,
2013-05-23 01:01:00,65.1,57.7,29.90,NW,315,2.0,2.0,77,0.06,,---,0.06,VWS V14.01,2013-05-23 05:01:00,
2013-05-23 01:06:00,64.9,57.9,29.91,North,0,0.0,0.0,78,0.06,,---,0.06,VWS V14.01,2013-05-23 05:06:00,
2013-05-23 01:11:00,64.7,57.7,29.91,NNE,22,0.0,0.0,78,0.06,,---,0.06,VWS V14.01,2013-05-23 05:11:00,
2013-05-23 01:16:00,64.5,57.8,29.91,SE,135,0.0,0.0,79,0.06,,---,0.06,VWS V14.01,2013-05-23 05:16:00,
2013-05-23 01:21:00,64.5,57.8,29.91,WNW,292,0.0,0.0,79,0.08,,---,0.08,VWS V14.01,2013-05-23 05:21:00,
2013-05-23 01:26:00,64.5,58.2,29.90,North,0,0.0,0.0,80,0.06,,---,0.08,VWS V14.01,2013-05-23 05:26:00,
2013-05-23 01:31:00,64.5,58.2,29.90,ESE,112,0.0,0.0,80,0.06,,---,0.08,VWS V14.01,2013-05-23 05:31:00,
2013-05-23 01:36:00,64.5,58.2,29.89,SE,135,0.0,0.0,80,0.06,,---,0.08,VWS V14.01,2013-05-23 05:36:00,
2013-05-23 01:41:00,64.5,58.2,29.89,SE,135,0.0,0.0,80,0.06,,---,0.08,VWS V14.01,2013-05-23 05:41:00,
2013-05-23 01:46:00,64.5,58.2,29.88,SE,135,0.0,0.0,80,0.04,,---,0.08,VWS V14.01,2013-05-23 05:46:00,
2013-05-23 01:51:00,64.4,58.1,29.88,SE,135,0.0,0.0,80,0.04,,---,0.08,VWS V14.01,2013-05-23 05:51:00,
2013-05-23 01:56:00,64.2,57.9,29.88,SE,135,0.0,0.0,80,0.04,,---,0.08,VWS V14.01,2013-05-23 05:56:00,
2013-05-23 02:01:00,64.2,57.9,29.88,North,0,0.0,0.0,80,0.02,,---,0.08,VWS V14.01,2013-05-23 06:01:00,
2013-05-23 02:06:00,64.2,57.9,29.88,North,0,0.0,0.0,80,0.02,,---,0.08,VWS V14.01,2013-05-23 06:06:00,
2013-05-23 02:11:00,64.2,57.9,29.88,North,0,0.0,0.0,80,0.02,,---,0.08,VWS V14.01,2013-05-23 06:11:00,
2013-05-23 02:16:00,64.0,58.1,29.88,NNW,338,0.0,0.0,81,0.02,,---,0.08,VWS V14.01,2013-05-23 06:16:00,
2013-05-23 02:21:00,64.0,58.1,29.88,North,0,0.0,0.0,81,0.00,,---,0.08,VWS V14.01,2013-05-23 06:21:00,
2013-05-23 02:26:00,64.0,58.1,29.88,NNW,338,0.0,0.0,81,0.00,,---,0.08,VWS V14.01,2013-05-23 06:26:00,
2013-05-23 02:31:00,63.8,57.9,29.88,NNW,338,0.0,0.0,81,0.00,,---,0.08,VWS V14.01,2013-05-23 06:31:00,
2013-05-23 02:36:00,63.6,57.7,29.88,NW,315,0.0,0.0,81,0.00,,---,0.08,VWS V14.01,2013-05-23 06:36:00,
2013-05-23 02:41:00,63.6,57.7,29.87,NE,45,0.0,0.0,81,0.00,,---,0.08,VWS V14.01,2013-05-23 06:41:00,
2013-05-23 02:46:00,63.6,57.7,29.87,NE,45,0.0,0.0,81,0.02,,---,0.10,VWS V14.01,2013-05-23 06:46:00,
2013-05-23 02:51:00,63.6,58.0,29.86,ENE,68,0.0,0.0,82,0.02,,---,0.10,VWS V14.01,2013-05-23 06:51:00,
2013-05-23 02:56:00,63.5,57.9,29.87,North,0,0.0,0.0,82,0.02,,---,0.10,VWS V14.01,2013-05-23 06:56:00,
2013-05-23 03:01:00,63.5,57.9,29.86,ENE,68,0.0,0.0,82,0.02,,---,0.10,VWS V14.01,2013-05-23 07:01:00,
2013-05-23 03:06:00,63.3,57.7,29.86,SE,135,0.0,0.0,82,0.02,,---,0.10,VWS V14.01,2013-05-23 07:06:00,
2013-05-23 03:11:00,63.3,57.7,29.87,SE,135,0.0,0.0,82,0.02,,---,0.10,VWS V14.01,2013-05-23 07:11:00,
2013-05-23 03:16:00,63.3,57.4,29.86,SE,135,0.0,0.0,81,0.02,,---,0.10,VWS V14.01,2013-05-23 07:16:00,
2013-05-23 03:21:00,63.3,57.4,29.86,SE,135,0.0,0.0,81,0.02,,---,0.10,VWS V14.01,2013-05-23 07:21:00,
2013-05-23 03:26:00,63.1,57.5,29.86,SE,135,0.6,0.6,82,0.02,,---,0.10,VWS V14.01,2013-05-23 07:26:00,
2013-05-23 03:31:00,63.1,57.5,29.86,SE,135,0.0,0.0,82,0.02,,---,0.10,VWS V14.01,2013-05-23 07:31:00,
2013-05-23 03:36:00,62.9,57.3,29.86,SE,135,0.0,0.0,82,0.02,,---,0.10,VWS V14.01,2013-05-23 07:36:00,
2013-05-23 03:41:00,62.7,57.1,29.86,SE,135,0.0,0.0,82,0.02,,---,0.10,VWS V14.01,2013-05-23 07:41:00,
2013-05-23 03:46:00,62.7,57.1,29.85,SE,135,0.0,0.0,82,0.00,,---,0.10,VWS V14.01,2013-05-23 07:46:00,
2013-05-23 03:51:00,62.7,57.1,29.86,SSE,158,0.0,0.0,82,0.00,,---,0.10,VWS V14.01,2013-05-23 07:51:00,
2013-05-23 03:56:00,62.6,57.0,29.86,SE,135,0.0,0.0,82,0.00,,---,0.10,VWS V14.01,2013-05-23 07:56:00,
2013-05-23 04:01:00,62.4,56.8,29.85,NNW,338,0.0,0.0,82,0.00,,---,0.10,VWS V14.01,2013-05-23 08:01:00,
2013-05-23 04:06:00,62.4,56.8,29.85,North,0,0.0,0.0,82,0.00,,---,0.10,VWS V14.01,2013-05-23 08:06:00,
2013-05-23 04:11:00,62.4,56.8,29.86,NE,45,0.0,0.0,82,0.00,,---,0.10,VWS V14.01,2013-05-23 08:11:00,
2013-05-23 04:16:00,62.4,56.8,29.86,NE,45,0.0,0.0,82,0.00,,---,0.10,VWS V14.01,2013-05-23 08:16:00,
2013-05-23 04:21:00,62.4,56.8,29.86,ENE,68,0.0,0.0,82,0.00,,---,0.10,VWS V14.01,2013-05-23 08:21:00,
2013-05-23 04:26:00,62.2,56.6,29.86,SE,135,0.0,0.0,82,0.00,,---,0.10,VWS V14.01,2013-05-23 08:26:00,
2013-05-23 04:31:00,62.2,56.6,29.86,SE,135,0.0,0.0,82,0.00,,---,0.10,VWS V14.01,2013-05-23 08:31:00,
2013-05-23 04:36:00,62.2,56.6,29.86,SSE,158,0.0,0.0,82,0.00,,---,0.10,VWS V14.01,2013-05-23 08:36:00,
2013-05-23 04:41:00,62.2,56.6,29.86,SSE,158,0.0,0.0,82,0.00,,---,0.10,VWS V14.01,2013-05-23 08:41:00,
2013-05-23 04:46:00,62.2,56.6,29.86,West,270,0.0,0.0,82,0.00,,---,0.10,VWS V14.01,2013-05-23 08:46:00,
2013-05-23 04:51:00,62.0,56.5,29.86,West,270,0.0,0.0,82,0.00,,---,0.10,VWS V14.01,2013-05-23 08:51:00,
2013-05-23 04:56:00,61.8,56.6,29.86,West,270,0.0,0.0,83,0.00,,---,0.10,VWS V14.01,2013-05-23 08:56:00,
2013-05-23 05:01:00,61.8,56.6,29.86,West,270,0.0,0.0,83,0.00,,---,0.10,VWS V14.01,2013-05-23 09:01:00,
2013-05-23 05:06:00,61.8,56.6,29.86,West,270,0.0,0.0,83,0.00,,---,0.10,VWS V14.01,2013-05-23 09:06:00,
2013-05-23 05:11:00,61.8,56.6,29.86,SSW,202,0.0,0.0,83,0.00,,---,0.10,VWS V14.01,2013-05-23 09:11:00,
2013-05-23 05:16:00,61.7,56.5,29.86,NW,315,0.0,0.0,83,0.00,,---,0.10,VWS V14.01,2013-05-23 09:16:00,
2013-05-23 05:21:00,61.7,56.5,29.86,West,270,0.0,0.0,83,0.00,,---,0.10,VWS V14.01,2013-05-23 09:21:00,
2013-05-23 05:26:00,61.7,56.2,29.86,WNW,292,0.0,0.0,82,0.00,,---,0.10,VWS V14.01,2013-05-23 09:26:00,
2013-05-23 05:31:00,61.7,56.2,29.86,SE,135,0.0,0.0,82,0.00,,---,0.10,VWS V14.01,2013-05-23 09:31:00,
2013-05-23 05:36:00,61.7,56.2,29.87,SE,135,1.7,1.7,82,0.00,,---,0.10,VWS V14.01,2013-05-23 09:36:00,
2013-05-23 05:41:00,61.7,56.2,29.87,WSW,248,0.0,0.0,82,0.00,,---,0.10,VWS V14.01,2013-05-23 09:41:00,
2013-05-23 05:46:00,61.7,56.2,29.87,SE,135,0.0,0.0,82,0.00,,---,0.10,VWS V14.01,2013-05-23 09:46:00,
2013-05-23 05:51:00,61.7,56.2,29.87,SE,135,2.4,2.4,82,0.00,,---,0.10,VWS V14.01,2013-05-23 09:51:00,
2013-05-23 05:56:00,61.7,56.2,29.87,SE,135,0.4,0.4,82,0.00,,---,0.10,VWS V14.01,2013-05-23 09:56:00,
2013-05-23 06:01:00,61.7,56.2,29.87,SE,135,0.0,0.0,82,0.00,,---,0.10,VWS V14.01,2013-05-23 10:01:00,
2013-05-23 06:06:00,61.7,56.2,29.87,SE,135,0.0,0.0,82,0.00,,---,0.10,VWS V14.01,2013-05-23 10:06:00,
2013-05-23 06:11:00,61.7,56.2,29.87,SE,135,0.0,0.0,82,0.00,,---,0.10,VWS V14.01,2013-05-23 10:11:00,
2013-05-23 06:16:00,61.7,56.5,29.88,NW,315,0.0,0.0,83,0.00,,---,0.10,VWS V14.01,2013-05-23 10:16:00,
2013-05-23 06:21:00,61.7,56.2,29.88,NW,315,0.0,0.0,82,0.00,,---,0.10,VWS V14.01,2013-05-23 10:21:00,
2013-05-23 06:26:00,61.8,56.2,29.88,North,0,0.0,0.0,82,0.00,,---,0.10,VWS V14.01,2013-05-23 10:26:00,
2013-05-23 06:31:00,61.8,56.2,29.88,SSE,158,0.0,0.0,82,0.00,,---,0.10,VWS V14.01,2013-05-23 10:31:00,
2013-05-23 06:36:00,61.8,56.2,29.89,West,270,0.0,0.0,82,0.00,,---,0.10,VWS V14.01,2013-05-23 10:36:00,
2013-05-23 06:41:00,62.0,56.5,29.89,SSW,202,0.0,0.0,82,0.00,,---,0.10,VWS V14.01,2013-05-23 10:41:00,
2013-05-23 06:46:00,62.2,56.6,29.89,NW,315,0.0,0.0,82,0.00,,---,0.10,VWS V14.01,2013-05-23 10:46:00,
2013-05-23 06:51:00,62.2,56.6,29.89,SE,135,0.0,0.0,82,0.00,,---,0.10,VWS V14.01,2013-05-23 10:51:00,
2013-05-23 06:56:00,62.2,56.6,29.89,East,90,0.0,0.0,82,0.00,,---,0.10,VWS V14.01,2013-05-23 10:56:00,
2013-05-23 07:01:00,62.2,56.6,29.89,NW,315,1.3,1.3,82,0.00,,---,0.10,VWS V14.01,2013-05-23 11:01:00,
2013-05-23 07:06:00,62.2,56.6,29.89,SE,135,0.0,0.0,82,0.00,,---,0.10,VWS V14.01,2013-05-23 11:06:00,
2013-05-23 07:11:00,62.4,56.8,29.89,NNW,338,0.0,0.0,82,0.00,,---,0.10,VWS V14.01,2013-05-23 11:11:00,
2013-05-23 07:16:00,62.2,56.6,29.89,NNW,338,0.0,0.0,82,0.00,,---,0.10,VWS V14.01,2013-05-23 11:16:00,
2013-05-23 07:21:00,62.2,56.6,29.89,NNW,338,0.0,0.0,82,0.00,,---,0.10,VWS V14.01,2013-05-23 11:21:00,
2013-05-23 07:26:00,62.2,56.6,29.89,NW,315,0.0,0.0,82,0.00,,---,0.10,VWS V14.01,2013-05-23 11:26:00,
2013-05-23 07:31:00,62.4,56.8,29.89,NNE,22,0.0,0.0,82,0.00,,---,0.10,VWS V14.01,2013-05-23 11:31:00,
2013-05-23 07:36:00,62.4,56.8,29.89,SE,135,3.1,3.1,82,0.00,,---,0.10,VWS V14.01,2013-05-23 11:36:00,
2013-05-23 07:41:00,62.4,56.8,29.89,SW,225,0.0,0.0,82,0.00,,---,0.10,VWS V14.01,2013-05-23 11:41:00,
2013-05-23 07:46:00,62.4,56.8,29.89,SW,225,0.0,0.0,82,0.00,,---,0.10,VWS V14.01,2013-05-23 11:46:00,
2013-05-23 07:51:00,62.4,56.8,29.89,SW,225,0.0,0.0,82,0.00,,---,0.10,VWS V14.01,2013-05-23 11:51:00,
2013-05-23 07:56:00,62.4,56.8,29.89,SW,225,0.0,0.0,82,0.00,,---,0.10,VWS V14.01,2013-05-23 11:56:00,
2013-05-23 08:01:00,62.4,56.8,29.89,SE,135,2.9,2.9,82,0.00,,---,0.10,VWS V14.01,2013-05-23 12:01:00,
2013-05-23 08:06:00,62.4,56.8,29.89,SE,135,2.9,2.9,82,0.00,,---,0.10,VWS V14.01,2013-05-23 12:06:00,
2013-05-23 08:11:00,62.4,56.8,29.89,SSE,158,0.0,0.0,82,0.00,,---,0.10,VWS V14.01,2013-05-23 12:11:00,
2013-05-23 08:16:00,62.7,57.1,29.89,SE,135,3.3,3.3,82,0.00,,---,0.10,VWS V14.01,2013-05-23 12:16:00,
2013-05-23 08:21:00,62.9,57.3,29.89,NW,315,0.8,0.8,82,0.00,,---,0.10,VWS V14.01,2013-05-23 12:21:00,
2013-05-23 08:26:00,63.1,57.5,29.89,SE,135,1.5,1.5,82,0.00,,---,0.10,VWS V14.01,2013-05-23 12:26:00,
2013-05-23 08:31:00,63.3,57.7,29.89,SE,135,0.6,0.6,82,0.00,,---,0.10,VWS V14.01,2013-05-23 12:31:00,
2013-05-23 08:36:00,63.5,57.9,29.89,SE,135,0.0,0.0,82,0.00,,---,0.10,VWS V14.01,2013-05-23 12:36:00,
2013-05-23 08:41:00,63.6,58.0,29.89,SE,135,0.0,0.0,82,0.00,,---,0.10,VWS V14.01,2013-05-23 12:41:00,
2013-05-23 08:46:00,63.6,58.0,29.89,SE,135,0.6,0.6,82,0.00,,---,0.10,VWS V14.01,2013-05-23 12:46:00,
2013-05-23 08:51:00,63.8,58.2,29.89,SE,135,2.9,2.9,82,0.00,,---,0.10,VWS V14.01,2013-05-23 12:51:00,
2013-05-23 08:56:00,64.0,58.1,29.89,SE,135,5.1,5.1,81,0.00,,---,0.10,VWS V14.01,2013-05-23 12:56:00,
2013-05-23 09:01:00,64.0,58.1,29.89,SE,135,5.1,5.1,81,0.00,,---,0.10,VWS V14.01,2013-05-23 13:01:00,
2013-05-23 09:06:00,64.2,58.3,29.89,SE,135,5.1,5.1,81,0.00,,---,0.10,VWS V14.01,2013-05-23 13:06:00,
2013-05-23 09:11:00,64.2,58.3,29.89,SE,135,4.6,4.6,81,0.00,,---,0.10,VWS V14.01,2013-05-23 13:11:00,
2013-05-23 09:16:00,64.2,58.3,29.89,SE,135,0.0,0.0,81,0.00,,---,0.10,VWS V14.01,2013-05-23 13:16:00,
2013-05-23 09:21:00,64.2,58.3,29.89,NW,315,1.1,1.1,81,0.00,,---,0.10,VWS V14.01,2013-05-23 13:21:00,
2013-05-23 09:26:00,64.2,58.3,29.89,South,180,0.0,0.0,81,0.00,,---,0.10,VWS V14.01,2013-05-23 13:26:00,
2013-05-23 09:31:00,64.2,58.3,29.89,ENE,68,1.1,1.1,81,0.00,,---,0.10,VWS V14.01,2013-05-23 13:31:00,
2013-05-23 09:36:00,64.5,58.5,29.89,WNW,292,1.3,1.3,81,0.00,,---,0.10,VWS V14.01,2013-05-23 13:36:00,
2013-05-23 09:41:00,64.2,58.3,29.89,NNW,338,1.1,1.1,81,0.00,,---,0.10,VWS V14.01,2013-05-23 13:41:00,
2013-05-23 09:46:00,64.2,58.3,29.89,SSW,202,0.0,0.0,81,0.00,,---,0.10,VWS V14.01,2013-05-23 13:46:00,
2013-05-23 09:51:00,64.2,58.3,29.89,SSE,158,0.0,0.0,81,0.00,,---,0.10,VWS V14.01,2013-05-23 13:51:00,
2013-05-23 09:56:00,64.2,58.3,29.89,SW,225,0.0,0.0,81,0.00,,---,0.10,VWS V14.01,2013-05-23 13:56:00,
2013-05-23 10:01:00,64.2,58.6,29.89,WNW,292,0.0,0.0,82,0.00,,---,0.10,VWS V14.01,2013-05-23 14:01:00,
2013-05-23 10:06:00,64.2,58.6,29.90,NNW,338,0.0,0.0,82,0.00,,---,0.10,VWS V14.01,2013-05-23 14:06:00,
2013-05-23 10:11:00,64.0,58.7,29.90,NNW,338,0.0,0.0,83,0.08,,---,0.19,VWS V14.01,2013-05-23 14:11:00,
2013-05-23 10:16:00,63.8,58.5,29.90,NE,45,0.0,0.0,83,0.10,,---,0.20,VWS V14.01,2013-05-23 14:16:00,
2013-05-23 10:21:00,63.6,58.0,29.90,NE,45,0.0,0.0,82,0.12,,---,0.22,VWS V14.01,2013-05-23 14:21:00,
2013-05-23 10:26:00,63.6,58.3,29.90,ESE,112,0.0,0.0,83,0.12,,---,0.22,VWS V14.01,2013-05-23 14:26:00,
2013-05-23 10:31:00,63.6,58.3,29.89,ENE,68,0.0,0.0,83,0.12,,---,0.22,VWS V14.01,2013-05-23 14:31:00,
2013-05-23 10:36:00,63.6,58.3,29.90,SE,135,3.1,3.1,83,0.12,,---,0.22,VWS V14.01,2013-05-23 14:36:00,
2013-05-23 10:41:00,63.6,58.7,29.90,SE,135,0.0,0.0,84,0.12,,---,0.22,VWS V14.01,2013-05-23 14:41:00,
2013-05-23 10:46:00,63.6,58.7,29.90,SE,135,0.0,0.0,84,0.12,,---,0.22,VWS V14.01,2013-05-23 14:46:00,
2013-05-23 10:51:00,63.6,58.7,29.89,SE,135,3.5,3.5,84,0.12,,---,0.22,VWS V14.01,2013-05-23 14:51:00,
2013-05-23 10:56:00,63.8,58.9,29.89,SE,135,0.0,0.0,84,0.12,,---,0.22,VWS V14.01,2013-05-23 14:56:00,
2013-05-23 11:01:00,64.0,59.1,29.89,NE,45,0.0,0.0,84,0.12,,---,0.22,VWS V14.01,2013-05-23 15:01:00,
2013-05-23 11:06:00,64.4,59.8,29.89,SSW,202,2.9,2.9,85,0.12,,---,0.22,VWS V14.01,2013-05-23 15:06:00,
2013-05-23 11:11:00,64.9,60.3,29.89,SSE,158,0.0,0.0,85,0.04,,---,0.22,VWS V14.01,2013-05-23 15:11:00,
2013-05-23 11:16:00,65.3,60.7,29.89,SSW,202,0.0,0.0,85,0.02,,---,0.22,VWS V14.01,2013-05-23 15:16:00,
2013-05-23 11:21:00,65.4,60.5,29.89,SE,135,0.0,0.0,84,0.00,,---,0.22,VWS V14.01,2013-05-23 15:21:00,
2013-05-23 11:26:00,65.8,60.8,29.89,WNW,292,2.2,2.2,84,0.00,,---,0.22,VWS V14.01,2013-05-23 15:26:00,
2013-05-23 11:31:00,65.8,60.5,29.89,SE,135,6.0,6.0,83,0.00,,---,0.22,VWS V14.01,2013-05-23 15:31:00,
2013-05-23 11:36:00,66.0,60.7,29.89,SE,135,6.2,6.2,83,0.00,,---,0.22,VWS V14.01,2013-05-23 15:36:00,
2013-05-23 11:41:00,66.0,60.7,29.89,SE,135,6.7,6.7,83,0.00,,---,0.22,VWS V14.01,2013-05-23 15:41:00,
2013-05-23 11:46:00,66.3,61.0,29.89,SE,135,1.3,1.3,83,0.00,,---,0.22,VWS V14.01,2013-05-23 15:46:00,
2013-05-23 11:51:00,66.5,61.2,29.89,NNE,22,0.0,0.0,83,0.00,,---,0.22,VWS V14.01,2013-05-23 15:51:00,
2013-05-23 11:56:00,67.1,61.4,29.89,WNW,292,0.0,0.0,82,0.00,,---,0.22,VWS V14.01,2013-05-23 15:56:00,
2013-05-23 12:01:00,67.2,61.5,29.89,West,270,0.0,0.0,82,0.00,,---,0.22,VWS V14.01,2013-05-23 16:01:00,
2013-05-23 12:06:00,67.6,61.6,29.89,NNE,22,0.8,0.8,81,0.00,,---,0.22,VWS V14.01,2013-05-23 16:06:00,
2013-05-23 12:11:00,67.6,61.2,29.90,ENE,68,0.0,0.0,80,0.00,,---,0.22,VWS V14.01,2013-05-23 16:11:00,
2013-05-23 12:16:00,67.6,61.2,29.90,NW,315,5.3,5.3,80,0.00,,---,0.22,VWS V14.01,2013-05-23 16:16:00,
2013-05-23 12:21:00,67.4,60.7,29.89,SSE,158,4.6,4.6,79,0.00,,---,0.22,VWS V14.01,2013-05-23 16:21:00,
2013-05-23 12:26:00,67.2,60.5,29.89,NNW,338,2.2,2.2,79,0.00,,---,0.22,VWS V14.01,2013-05-23 16:26:00,
2013-05-23 12:31:00,67.6,60.5,29.89,North,0,3.5,3.5,78,0.00,,---,0.22,VWS V14.01,2013-05-23 16:31:00,
2013-05-23 12:36:00,67.4,60.7,29.89,SSE,158,0.0,0.0,79,0.00,,---,0.22,VWS V14.01,2013-05-23 16:36:00,
2013-05-23 12:41:00,67.8,61.1,29.89,ESE,112,0.0,0.0,79,0.00,,---,0.22,VWS V14.01,2013-05-23 16:41:00,
2013-05-23 12:46:00,67.8,61.1,29.88,SE,135,6.2,6.2,79,0.00,,---,0.22,VWS V14.01,2013-05-23 16:46:00,
2013-05-23 12:51:00,68.1,61.3,29.88,NW,315,0.0,0.0,79,0.00,,---,0.22,VWS V14.01,2013-05-23 16:51:00,
2013-05-23 12:56:00,68.3,61.2,29.88,SE,135,4.6,4.6,78,0.00,,---,0.22,VWS V14.01,2013-05-23 16:56:00,
2013-05-23 13:01:00,68.7,61.6,29.87,East,90,3.5,3.5,78,0.00,,---,0.22,VWS V14.01,2013-05-23 17:01:00,
2013-05-23 13:06:00,68.7,61.2,29.87,SE,135,0.6,0.6,77,0.00,,---,0.22,VWS V14.01,2013-05-23 17:06:00,
2013-05-23 13:11:00,68.7,60.8,29.87,NE,45,0.8,0.8,76,0.00,,---,0.22,VWS V14.01,2013-05-23 17:11:00,
2013-05-23 13:16:00,68.7,60.8,29.87,SE,135,7.1,7.1,76,0.00,,---,0.22,VWS V14.01,2013-05-23 17:16:00,
2013-05-23 13:21:00,69.0,61.1,29.86,SE,135,3.3,3.3,76,0.00,,---,0.22,VWS V14.01,2013-05-23 17:21:00,
2013-05-23 13:26:00,69.6,61.3,29.87,SE,135,3.3,3.3,75,0.00,,---,0.22,VWS V14.01,2013-05-23 17:26:00,
2013-05-23 13:31:00,69.8,61.5,29.87,SSW,202,0.0,0.0,75,0.00,,---,0.22,VWS V14.01,2013-05-23 17:31:00,
2013-05-23 13:36:00,69.9,61.2,29.86,NNW,338,2.9,2.9,74,0.00,,---,0.22,VWS V14.01,2013-05-23 17:36:00,
2013-05-23 13:41:00,70.3,62.0,29.86,South,180,1.5,1.5,75,0.00,,---,0.22,VWS V14.01,2013-05-23 17:41:00,
2013-05-23 13:46:00,70.7,62.4,29.85,SE,135,3.1,3.1,75,0.00,,---,0.22,VWS V14.01,2013-05-23 17:46:00,
2013-05-23 13:51:00,71.0,62.3,29.86,SE,135,1.3,1.3,74,0.00,,---,0.22,VWS V14.01,2013-05-23 17:51:00,
2013-05-23 13:56:00,71.2,61.7,29.86,SE,135,0.0,0.0,72,0.00,,---,0.22,VWS V14.01,2013-05-23 17:56:00,
2013-05-23 14:01:00,71.2,61.7,29.86,SE,135,7.3,7.3,72,0.00,,---,0.22,VWS V14.01,2013-05-23 18:01:00,
2013-05-23 14:06:00,70.8,61.3,29.86,SE,135,5.1,5.1,72,0.00,,---,0.22,VWS V14.01,2013-05-23 18:06:00,
2013-05-23 14:11:00,70.7,61.2,29.86,NNW,338,3.1,3.1,72,0.00,,---,0.22,VWS V14.01,2013-05-23 18:11:00,
2013-05-23 14:16:00,70.3,60.5,29.86,NE,45,0.0,0.0,71,0.00,,---,0.22,VWS V14.01,2013-05-23 18:16:00,
2013-05-23 14:21:00,69.9,60.1,29.86,NW,315,0.0,0.0,71,0.00,,---,0.22,VWS V14.01,2013-05-23 18:21:00,
2013-05-23 14:26:00,69.4,60.4,29.86,WNW,292,0.0,0.0,73,0.00,,---,0.22,VWS V14.01,2013-05-23 18:26:00,
2013-05-23 14:31:00,69.0,60.0,29.86,SE,135,0.8,0.8,73,0.00,,---,0.22,VWS V14.01,2013-05-23 18:31:00,
2013-05-23 14:36:00,68.7,60.1,29.86,SE,135,0.0,0.0,74,0.02,,---,0.24,VWS V14.01,2013-05-23 18:36:00,
2013-05-23 14:41:00,68.5,59.9,29.86,NNW,338,0.0,3.5,74,0.02,,---,0.24,VWS V14.01,2013-05-23 18:41:00,
2013-05-23 14:46:00,68.5,60.6,29.86,SE,135,0.0,0.0,76,0.02,,---,0.24,VWS V14.01,2013-05-23 18:46:00,
2013-05-23 14:51:00,68.7,61.2,29.86,NW,315,2.2,2.2,77,0.02,,---,0.24,VWS V14.01,2013-05-23 18:51:00,
2013-05-23 14:56:00,69.0,61.5,29.86,NW,315,0.0,2.2,77,0.02,,---,0.24,VWS V14.01,2013-05-23 18:56:00,
2013-05-23 15:01:00,69.0,61.5,29.86,West,270,0.0,0.0,77,0.02,,---,0.24,VWS V14.01,2013-05-23 19:01:00,
2013-05-23 15:06:00,68.9,61.0,29.86,WNW,292,0.0,0.0,76,0.02,,---,0.24,VWS V14.01,2013-05-23 19:06:00,
2013-05-23 15:10:00,68.7,60.8,29.86,WNW,292,0.0,0.0,76,0.02,,---,0.24,VWS V14.01,2013-05-23 19:10:00,
2013-05-23 15:16:00,68.1,59.5,29.86,ESE,112,0.0,0.0,74,0.02,,---,0.24,VWS V14.01,2013-05-23 19:16:00,
2013-05-23 15:21:00,67.6,59.0,29.86,SE,135,0.0,0.0,74,0.02,,---,0.24,VWS V14.01,2013-05-23 19:21:00,
2013-05-23 15:25:00,66.9,58.3,29.86,SE,135,0.0,0.0,74,0.06,,---,0.29,VWS V14.01,2013-05-23 19:25:00,
2013-05-23 15:30:00,66.0,57.5,29.86,East,90,0.0,0.0,74,0.10,,---,0.33,VWS V14.01,2013-05-23 19:30:00,
2013-05-23 15:35:00,65.8,57.7,29.87,ESE,112,0.8,0.8,75,0.10,,---,0.35,VWS V14.01,2013-05-23 19:35:00,
2013-05-23 15:40:00,65.4,57.3,29.87,ESE,112,0.0,0.0,75,0.10,,---,0.35,VWS V14.01,2013-05-23 19:40:00,
2013-05-23 15:45:00,65.3,57.5,29.87,ESE,112,0.0,0.0,76,0.10,,---,0.35,VWS V14.01,2013-05-23 19:45:00,
2013-05-23 15:50:00,65.1,57.4,29.87,ESE,112,0.0,0.0,76,0.10,,---,0.35,VWS V14.01,2013-05-23 19:50:00,
2013-05-23 15:55:00,65.1,57.7,29.87,ESE,112,0.0,0.0,77,0.10,,---,0.35,VWS V14.01,2013-05-23 19:55:00,
2013-05-23 16:00:00,64.9,57.2,29.87,ESE,112,0.0,0.0,76,0.10,,---,0.35,VWS V14.01,2013-05-23 20:00:00,
2013-05-23 16:05:00,64.9,57.5,29.86,ESE,112,0.0,0.0,77,0.10,,---,0.35,VWS V14.01,2013-05-23 20:05:00,
2013-05-23 16:10:00,64.7,57.3,29.87,SE,135,0.0,0.0,77,0.10,,---,0.35,VWS V14.01,2013-05-23 20:10:00,
2013-05-23 16:15:00,64.5,57.5,29.87,SE,135,0.0,0.0,78,0.10,,---,0.35,VWS V14.01,2013-05-23 20:15:00,
2013-05-23 16:20:00,64.5,57.5,29.87,SSE,158,0.0,0.0,78,0.10,,---,0.35,VWS V14.01,2013-05-23 20:20:00,
2013-05-23 16:25:00,64.2,57.2,29.87,SSE,158,0.0,0.0,78,0.06,,---,0.35,VWS V14.01,2013-05-23 20:25:00,
2013-05-23 16:30:00,64.2,57.2,29.86,SSE,158,0.0,0.0,78,0.02,,---,0.35,VWS V14.01,2013-05-23 20:30:00,
2013-05-23 16:36:00,64.2,57.2,29.86,SSE,158,0.0,0.0,78,0.00,,---,0.35,VWS V14.01,2013-05-23 20:36:00,
2013-05-23 16:40:00,64.2,57.2,29.86,SSE,158,0.0,0.0,78,0.00,,---,0.35,VWS V14.01,2013-05-23 20:40:00,
2013-05-23 16:45:00,64.0,57.0,29.86,SE,135,0.0,0.0,78,0.00,,---,0.35,VWS V14.01,2013-05-23 20:45:00,
2013-05-23 16:50:00,64.0,57.0,29.86,SE,135,0.0,0.0,78,0.00,,---,0.35,VWS V14.01,2013-05-23 20:50:00,
2013-05-23 16:56:00,63.8,57.2,29.87,SE,135,0.0,0.0,79,0.00,,---,0.35,VWS V14.01,2013-05-23 20:56:00,
2013-05-23 17:01:00,64.0,57.4,29.86,SSE,158,0.0,0.0,79,0.00,,---,0.35,VWS V14.01,2013-05-23 21:01:00,
2013-05-23 17:05:00,63.8,57.2,29.86,West,270,0.0,0.0,79,0.00,,---,0.35,VWS V14.01,2013-05-23 21:05:00,
2013-05-23 17:11:00,63.6,57.3,29.86,West,270,0.0,0.0,80,0.00,,---,0.35,VWS V14.01,2013-05-23 21:11:00,
2013-05-23 17:16:00,63.6,57.3,29.86,West,270,0.0,0.0,80,0.00,,---,0.35,VWS V14.01,2013-05-23 21:16:00,
2013-05-23 17:20:00,63.6,57.3,29.86,West,270,0.0,0.0,80,0.00,,---,0.35,VWS V14.01,2013-05-23 21:20:00,
2013-05-23 17:25:00,63.6,57.3,29.86,West,270,0.0,0.0,80,0.00,,---,0.35,VWS V14.01,2013-05-23 21:25:00,
2013-05-23 17:30:00,63.6,57.3,29.86,West,270,0.0,0.0,80,0.00,,---,0.35,VWS V14.01,2013-05-23 21:30:00,
2013-05-23 17:35:00,63.6,57.3,29.86,SW,225,0.0,0.0,80,0.00,,---,0.35,VWS V14.01,2013-05-23 21:35:00,
2013-05-23 17:40:00,63.5,57.2,29.86,SW,225,0.0,0.0,80,0.00,,---,0.35,VWS V14.01,2013-05-23 21:40:00,
2013-05-23 17:45:00,63.1,56.8,29.87,SW,225,0.0,0.0,80,0.00,,---,0.35,VWS V14.01,2013-05-23 21:45:00,
2013-05-23 17:50:00,63.1,56.8,29.87,SW,225,0.0,0.0,80,0.00,,---,0.35,VWS V14.01,2013-05-23 21:50:00,
2013-05-23 17:55:00,63.1,56.8,29.87,West,270,0.0,0.0,80,0.04,,---,0.39,VWS V14.01,2013-05-23 21:55:00,
2013-05-23 18:00:00,62.7,56.5,29.86,West,270,0.0,0.0,80,0.08,,---,0.43,VWS V14.01,2013-05-23 22:00:00,
2013-05-23 18:05:00,62.7,56.5,29.86,West,270,0.0,0.0,80,0.08,,---,0.43,VWS V14.01,2013-05-23 22:05:00,
2013-05-23 18:10:00,62.6,56.3,29.86,West,270,0.0,0.0,80,0.10,,---,0.45,VWS V14.01,2013-05-23 22:10:00,
2013-05-23 18:15:00,62.4,56.2,29.86,West,270,0.0,0.0,80,0.10,,---,0.45,VWS V14.01,2013-05-23 22:15:00,
2013-05-23 18:20:00,62.4,56.2,29.86,West,270,0.0,0.0,80,0.12,,---,0.47,VWS V14.01,2013-05-23 22:20:00,
2013-05-23 18:25:00,62.2,56.0,29.86,WNW,292,0.0,0.0,80,0.12,,---,0.47,VWS V14.01,2013-05-23 22:25:00,
2013-05-23 18:30:00,62.0,56.1,29.86,SSE,158,0.0,0.0,81,0.15,,---,0.49,VWS V14.01,2013-05-23 22:30:00,
2013-05-23 18:35:00,61.8,55.9,29.86,SSE,158,0.0,0.0,81,0.17,,---,0.51,VWS V14.01,2013-05-23 22:35:00,
2013-05-23 18:40:00,61.7,55.8,29.86,SSE,158,0.0,0.0,81,0.17,,---,0.51,VWS V14.01,2013-05-23 22:40:00,
2013-05-23 18:45:00,61.5,55.6,29.85,SSE,158,0.0,0.0,81,0.20,,---,0.55,VWS V14.01,2013-05-23 22:45:00,
2013-05-23 18:50:00,61.5,55.6,29.84,SSE,158,0.0,0.0,81,0.20,,---,0.55,VWS V14.01,2013-05-23 22:50:00,
2013-05-23 18:55:00,61.5,55.6,29.85,SSE,158,0.0,0.0,81,0.16,,---,0.55,VWS V14.01,2013-05-23 22:55:00,
2013-05-23 19:00:00,61.5,56.0,29.85,SSE,158,0.0,0.0,82,0.12,,---,0.55,VWS V14.01,2013-05-23 23:00:00,
2013-05-23 19:05:00,61.5,56.0,29.85,SSE,158,0.0,0.0,82,0.12,,---,0.55,VWS V14.01,2013-05-23 23:05:00,
2013-05-23 19:10:00,61.5,56.0,29.86,SSE,158,0.0,0.0,82,0.10,,---,0.55,VWS V14.01,2013-05-23 23:10:00,
2013-05-23 19:15:00,61.5,56.0,29.85,SSE,158,0.0,0.0,82,0.10,,---,0.55,VWS V14.01,2013-05-23 23:15:00,
2013-05-23 19:20:00,61.5,56.0,29.86,SSE,158,0.0,0.0,82,0.08,,---,0.55,VWS V14.01,2013-05-23 23:20:00,
2013-05-23 19:25:00,61.5,56.0,29.86,SSE,158,0.0,0.0,82,0.08,,---,0.55,VWS V14.01,2013-05-23 23:25:00,
2013-05-23 19:30:00,61.5,56.3,29.86,SSE,158,0.0,0.0,83,0.06,,---,0.55,VWS V14.01,2013-05-23 23:30:00,
2013-05-23 19:35:00,61.5,56.3,29.86,SSE,158,0.0,0.0,83,0.04,,---,0.55,VWS V14.01,2013-05-23 23:35:00,
2013-05-23 19:40:00,61.3,56.1,29.86,SSE,158,0.0,0.0,83,0.04,,---,0.55,VWS V14.01,2013-05-23 23:40:00,
2013-05-23 19:45:00,61.3,56.1,29.86,SSE,158,0.0,0.0,83,0.00,,---,0.55,VWS V14.01,2013-05-23 23:45:00,
2013-05-23 19:50:00,61.3,56.1,29.86,SSE,158,0.0,0.0,83,0.00,,---,0.55,VWS V14.01,2013-05-23 23:50:00,
2013-05-23 19:55:00,61.3,56.1,29.86,SSE,158,0.0,0.0,83,0.00,,---,0.55,VWS V14.01,2013-05-23 23:55:00,
2013-05-23 20:00:00,61.3,56.1,29.86,SSE,158,0.0,0.0,83,0.00,,---,0.55,VWS V14.01,2013-05-24 00:00:00,
2013-05-23 20:05:00,61.3,56.1,29.86,SSE,158,0.0,0.0,83,0.00,,---,0.55,VWS V14.01,2013-05-24 00:05:00,
2013-05-23 20:10:00,61.1,55.9,29.86,SSE,158,0.0,0.0,83,0.00,,---,0.55,VWS V14.01,2013-05-24 00:10:00,
2013-05-23 20:15:00,61.1,55.9,29.86,SSE,158,0.0,0.0,83,0.00,,---,0.55,VWS V14.01,2013-05-24 00:15:00,
2013-05-23 20:20:00,61.1,55.9,29.86,SSE,158,0.0,0.0,83,0.00,,---,0.55,VWS V14.01,2013-05-24 00:20:00,
2013-05-23 20:25:00,60.9,55.7,29.86,SSE,158,0.0,0.0,83,0.00,,---,0.55,VWS V14.01,2013-05-24 00:25:00,
2013-05-23 20:30:00,60.9,55.7,29.86,SSE,158,0.0,0.0,83,0.00,,---,0.55,VWS V14.01,2013-05-24 00:30:00,
2013-05-23 20:35:00,60.9,55.7,29.86,SSE,158,0.0,0.0,83,0.00,,---,0.55,VWS V14.01,2013-05-24 00:35:00,
2013-05-23 20:40:00,60.9,55.7,29.85,SSE,158,0.0,0.0,83,0.00,,---,0.55,VWS V14.01,2013-05-24 00:40:00,
2013-05-23 20:45:00,60.8,55.6,29.85,SSE,158,0.0,0.0,83,0.00,,---,0.55,VWS V14.01,2013-05-24 00:45:00,
2013-05-23 20:50:00,60.8,55.6,29.85,SSE,158,0.0,0.0,83,0.00,,---,0.55,VWS V14.01,2013-05-24 00:50:00,
2013-05-23 20:55:00,60.6,55.4,29.85,SSE,158,0.0,0.0,83,0.00,,---,0.55,VWS V14.01,2013-05-24 00:55:00,
2013-05-23 21:00:00,60.6,55.4,29.85,SSE,158,0.0,0.0,83,0.00,,---,0.55,VWS V14.01,2013-05-24 01:00:00,
2013-05-23 21:05:00,60.6,55.4,29.85,SSE,158,0.0,0.0,83,0.00,,---,0.55,VWS V14.01,2013-05-24 01:05:00,
2013-05-23 21:10:00,60.6,55.8,29.86,SSE,158,0.0,0.0,84,0.00,,---,0.55,VWS V14.01,2013-05-24 01:10:00,
2013-05-23 21:15:00,60.4,55.5,29.85,SSE,158,0.0,0.0,84,0.00,,---,0.55,VWS V14.01,2013-05-24 01:15:00,
2013-05-23 21:20:00,60.4,55.5,29.86,SSE,158,0.0,0.0,84,0.00,,---,0.55,VWS V14.01,2013-05-24 01:20:00,
2013-05-23 21:25:00,60.4,55.5,29.86,SSE,158,0.0,0.0,84,0.00,,---,0.55,VWS V14.01,2013-05-24 01:25:00,
2013-05-23 21:30:00,60.2,55.3,29.85,SSE,158,0.0,0.0,84,0.00,,---,0.55,VWS V14.01,2013-05-24 01:30:00,
2013-05-23 21:35:00,60.0,55.2,29.86,SSE,158,0.0,0.0,84,0.00,,---,0.55,VWS V14.01,2013-05-24 01:35:00,
2013-05-23 21:40:00,60.0,55.2,29.86,SSE,158,0.0,0.0,84,0.00,,---,0.55,VWS V14.01,2013-05-24 01:40:00,
2013-05-23 21:45:00,60.0,55.2,29.86,SSE,158,0.0,0.0,84,0.00,,---,0.55,VWS V14.01,2013-05-24 01:45:00,
2013-05-23 21:50:00,60.0,55.2,29.86,SSE,158,0.0,0.0,84,0.00,,---,0.55,VWS V14.01,2013-05-24 01:50:00,
2013-05-23 21:55:00,60.0,55.2,29.86,SSE,158,0.0,0.0,84,0.00,,---,0.55,VWS V14.01,2013-05-24 01:55:00,
2013-05-23 22:00:00,59.9,55.1,29.86,SSE,158,0.0,0.0,84,0.00,,---,0.55,VWS V14.01,2013-05-24 02:00:00,
2013-05-23 22:05:00,59.9,55.1,29.85,SSE,158,0.0,0.0,84,0.00,,---,0.55,VWS V14.01,2013-05-24 02:05:00,
2013-05-23 22:10:00,59.9,55.1,29.85,SSE,158,0.0,0.0,84,0.00,,---,0.55,VWS V14.01,2013-05-24 02:10:00,
2013-05-23 22:15:00,59.9,55.1,29.85,SSE,158,0.0,0.0,84,0.00,,---,0.55,VWS V14.01,2013-05-24 02:15:00,
2013-05-23 22:20:00,59.7,54.9,29.85,SSE,158,0.0,0.0,84,0.00,,---,0.55,VWS V14.01,2013-05-24 02:20:00,
2013-05-23 22:25:00,59.7,54.9,29.85,SSE,158,0.0,0.0,84,0.00,,---,0.55,VWS V14.01,2013-05-24 02:25:00,
2013-05-23 22:30:00,59.7,54.9,29.85,SSE,158,0.0,0.0,84,0.00,,---,0.55,VWS V14.01,2013-05-24 02:30:00,
2013-05-23 22:35:00,59.7,54.9,29.85,SSE,158,0.0,0.0,84,0.00,,---,0.55,VWS V14.01,2013-05-24 02:35:00,
2013-05-23 22:40:00,59.5,54.7,29.85,SSE,158,0.0,0.0,84,0.00,,---,0.55,VWS V14.01,2013-05-24 02:40:00,
2013-05-23 22:45:00,59.5,54.7,29.86,SSE,158,0.0,0.0,84,0.00,,---,0.55,VWS V14.01,2013-05-24 02:45:00,
2013-05-23 22:50:00,59.5,54.7,29.86,SSE,158,0.0,0.0,84,0.00,,---,0.55,VWS V14.01,2013-05-24 02:50:00,
2013-05-23 22:55:00,59.5,54.7,29.86,SSE,158,0.0,0.0,84,0.00,,---,0.55,VWS V14.01,2013-05-24 02:55:00,
2013-05-23 23:00:00,59.5,54.7,29.85,SSE,158,0.0,0.0,84,0.00,,---,0.55,VWS V14.01,2013-05-24 03:00:00,
2013-05-23 23:05:00,59.5,54.7,29.85,SSE,158,0.0,0.0,84,0.00,,---,0.55,VWS V14.01,2013-05-24 03:05:00,
2013-05-23 23:10:00,59.3,54.8,29.85,SSE,158,0.0,0.0,85,0.00,,---,0.55,VWS V14.01,2013-05-24 03:10:00,
2013-05-23 23:15:00,59.3,54.8,29.85,SSE,158,0.0,0.0,85,0.00,,---,0.55,VWS V14.01,2013-05-24 03:15:00,
2013-05-23 23:20:00,59.3,54.8,29.85,SSE,158,0.0,0.0,85,0.00,,---,0.55,VWS V14.01,2013-05-24 03:20:00,
2013-05-23 23:25:00,59.3,54.8,29.85,SSE,158,0.0,0.0,85,0.00,,---,0.55,VWS V14.01,2013-05-24 03:25:00,
2013-05-23 23:30:00,59.3,54.8,29.85,SSE,158,0.0,0.0,85,0.00,,---,0.55,VWS V14.01,2013-05-24 03:30:00,
2013-05-23 23:35:00,59.3,54.8,29.85,SSE,158,0.0,0.0,85,0.00,,---,0.55,VWS V14.01,2013-05-24 03:35:00,
2013-05-23 23:40:00,59.3,54.8,29.85,SSE,158,0.0,0.0,85,0.00,,---,0.55,VWS V14.01,2013-05-24 03:40:00,
2013-05-23 23:45:00,59.1,54.6,29.85,SSE,158,0.0,0.0,85,0.00,,---,0.55,VWS V14.01,2013-05-24 03:45:00,
2013-05-23 23:50:00,59.1,54.6,29.85,SSE,158,0.0,0.0,85,0.00,,---,0.55,VWS V14.01,2013-05-24 03:50:00,
2013-05-23 23:55:00,59.1,54.6,29.86,SSE,158,0.0,0.0,85,0.00,,---,0.55,VWS V14.01,2013-05-24 03:55:00,